Weather History for Fort Leonard Wood, MO

Change the Weather History Date:

Tuesday, March 13, 2012

  Actual Average Record
Temperature  
Mean Temperature 65 °F -  
Max Temperature 82 °F 51 °F 82 °F (2012)
Min Temperature 49 °F 35 °F 24 °F (1998)
Growing Degree Days 15 (Base 50)    
Moisture  
Dew Point 47 °F    
Average Humidity 55    
Maximum Humidity 90    
Minimum Humidity 23    
Precipitation  
Precipitation 0.00 in - - ()
Sea Level Pressure  
Sea Level Pressure 30.02 in    
Wind  
Wind Speed 6 mph (South)    
Max Wind Speed 12 mph    
Max Gust Speed 18 mph    
Visibility 10 miles    
Events      
Averages and records for this station are not official NWS values.
T = Trace of Precipitation, MM = Missing Value Source: NWS Daily Summary

Daily Weather History Graph

Daily Weather History Graph

Search for Another Location

Airport:

Trip Planner

Search our weather history database for the weather conditions in past years. The results will help you decide how hot, cold, wet, or windy it might be!

Date:

Astronomy

Mar. 13, 2012 Rise Set
Actual Time 7:21 AM CDT 7:14 PM CDT
Civil Twilight 6:55 AM CDT 7:40 PM CDT
Nautical Twilight 6:25 AM CDT 8:10 PM CDT
Astronomical Twilight 5:54 AM CDT 8:41 PM CDT
Moon 12:39 AM CDT (3/13) 10:42 AM CDT (3/13)
Length of Visible Light 12h 44m
Length of Day
11h 52m
Waning Gibbous, 65% of the Moon is Illuminated
Mar 13
Waning Gibbous
Mar 14
Last Quarter
Mar 22
New
Mar 30
First Quarter
Apr 6
Full

Hourly Weather History & Observations

Time (CDT) Temp. Dew Point Humidity Pressure Visibility Wind Dir Wind Speed Gust Speed Precip Events Conditions
12:55 AM 59.2 °F 46.8 °F 63% 29.99 in 10.0 mi SSW 5.8 mph - N/A   Clear
1:55 AM 57.0 °F 46.4 °F 68% 29.99 in 10.0 mi SSW 5.8 mph - N/A   Clear
2:55 AM 55.8 °F 47.1 °F 73% 30.00 in 10.0 mi SW 5.8 mph - N/A   Clear
3:55 AM 54.9 °F 46.6 °F 74% 30.00 in 10.0 mi SW 5.8 mph - N/A   Clear
4:55 AM 53.2 °F 46.6 °F 78% 30.01 in 10.0 mi SW 6.9 mph - N/A   Clear
5:55 AM 53.8 °F 47.5 °F 79% 30.03 in 10.0 mi SW 4.6 mph - N/A   Clear
6:55 AM 49.3 °F 46.2 °F 89% 30.06 in 10.0 mi South 4.6 mph - N/A   Clear
7:55 AM 49.8 °F 46.9 °F 90% 30.07 in 10.0 mi South 4.6 mph - N/A   Clear
8:55 AM 59.5 °F 50.5 °F 72% 30.07 in 10.0 mi South 3.5 mph - N/A   Clear
9:55 AM 65.7 °F 53.2 °F 64% 30.07 in 10.0 mi SW 8.1 mph - N/A   Clear
10:55 AM 70.7 °F 56.1 °F 60% 30.07 in 10.0 mi Variable 5.8 mph - N/A   Clear
11:55 AM 74.8 °F 51.6 °F 44% 30.06 in 10.0 mi Calm Calm - N/A   Clear
12:55 PM 78.4 °F 47.5 °F 34% 30.05 in 10.0 mi South 8.1 mph - N/A   Clear
1:55 PM 80.8 °F 43.9 °F 27% 30.03 in 10.0 mi SSW 10.4 mph 18.4 mph N/A   Clear
2:55 PM 81.7 °F 43.5 °F 26% 30.00 in 10.0 mi South 9.2 mph - N/A   Clear
3:55 PM 81.3 °F 43.3 °F 26% 29.99 in 10.0 mi SSE 11.5 mph - N/A   Clear
4:55 PM 81.5 °F 40.1 °F 23% 29.98 in 10.0 mi Variable 5.8 mph - N/A   Clear
5:55 PM 80.2 °F 43.9 °F 28% 29.98 in 10.0 mi South 9.2 mph - N/A   Clear
6:55 PM 76.3 °F 44.1 °F 32% 29.99 in 10.0 mi SSE 9.2 mph - N/A   Clear
7:55 PM 68.5 °F 45.3 °F 43% 30.00 in 10.0 mi SSE 8.1 mph - N/A   Clear
8:55 PM 66.2 °F 44.6 °F 46% 30.00 in 10.0 mi SSE 8.1 mph - N/A   Clear
9:55 PM 66.9 °F 46.4 °F 48% 30.00 in 10.0 mi SSE 10.4 mph - N/A   Clear
10:55 PM 65.7 °F 51.4 °F 60% 30.00 in 10.0 mi SSE 9.2 mph - N/A   Clear
11:55 PM 64.6 °F 55.4 °F 72% 30.00 in 10.0 mi SSE 6.9 mph - N/A   Clear